NOAA 16 DEB, 41069

Orbit data source: Space-Track

NOAA 16 DEB, 41069 is space debris in SSO originally from a launch on Thu, 21 Sep 2000 UTC launched from the Air Force Western Test Range (AFWTR). Debris objects in space refer to the collection of defunct objects orbiting the Earth. Examples of debris include non-operational satellites, rocket bodies, and fragments generated from explosions, collisions, or faulty payload assembly.

Loading next visibility...
Identifier
41069, 2000-055AC
Orbit
SSO
Country
Flag of USUS
Related business
Manufacturer
Unknown
Mission
Spacecraft
Bus & Motor
Unknown
Mass
Unknown
Launch date (UTC)
2000-09-21 (26 years ago)
Launch vehicle
Unknown
Launch site
Air Force Western Test Range (AFWTR)
Object type
Payload
Rocket body
Debris
Shape & HBR
Unknown shape, 0.1 m
Radar Cross Section
Medium (>0.1 m² and <1 m²)

Expand to show TLE details & history
Last TLE update: 1 day ago

TLE from 1 day ago
0 NOAA 16 DEB
1 41069U 00055AC  26197.28334556  .00000861  00000-0  25139-3 0  9999
2 41069  98.6046 310.4101 0108962  91.3378 270.0297 14.43240378556821
Epoch: 2026-07-16T06:48Z
TLE epoch observation values (Epoch: 2026-07-16T06:48:01.056Z)
Latitude
-0.00002°
Longitude
-85.72132°
Altitude
751.568 km
Speed
7.478 km/s
True Right ascension
20h 41m 38s
True Declination
0° 00' 00"
Sunlit
Object was in full shadow at epoch
Visualization orbit readout
Latitude
Unknown
Longitude
Unknown
Altitude
Unknown
Speed
Unknown
Apparent Right ascension
Unknown
Apparent Declination
Unknown
Sunlit
N/A
Visualization observer readout
Local Sidereal Time
21:26:36
Azimuth
Unknown
Elevation
Unknown
Doppler factor
Unknown
Orbital elements
Apogee altitude
822.549 km
Perigee altitude
667.32 km
Semi-major axis
7,123.071 km
Eccentricity
0.0109
Inclination
98.6046°
RAAN
310.4101°
Arg. of periapsis
91.3378°
True anomaly
268.78118°
Mean anomaly
270.0297°
Eccentric anomaly
269.40543°
Mean motion
3.61029 °/min
Orbital period
99.71 mins
BSTAR
0.00025139
Loading maneuver chart data...
Computing Atmospheric mass density...
Loading historical data...
Loading historical data...
Loading historical data...
Loading historical data...
Loading historical data...
Loading historical data...
Loading historical data...

Documentation

Showing up to 5 results
|